Wind_Speed
15 15 15 15 15 15 14 13 14 13 12 12 12 11 11 11 10 9 9 9 9 8 8 9 9 9 9 9 9 9 9 9 10 10 10 10 11 11 12 11 11 11 11
15 14 14 15 15 15 14 14 14 14 13 13 12 11 11 10 11 11 10 9 9 9 8 9 9 9 9 9 9 9 9 9 10 10 10 11 11 11 11 11 11 12 11
14 14 13 14 14 15 15 14 14 14 14 13 12 12 12 11 11 11 11 10 10 10 10 9 9 9 9 9 9 9 9 9 10 10 11 10 10 10 10 10 11 11 11
15 14 14 13 13 13 14 14 14 15 15 14 14 13 13 13 13 12 12 12 12 11 11 10 10 10 9 9 9 9 9 9 10 10 10 10 10 10 10 10 10 10 10
15 15 14 14 14 14 14 14 14 14 14 14 14 14 14 13 13 12 12 12 12 11 12 11 11 11 10 10 10 10 10 10 10 10 10 10 10 11 10 11 11 10 10
16 15 14 14 14 15 14 14 14 14 14 14 14 14 14 14 13 13 12 12 12 12 12 11 11 11 11 10 10 9 10 10 10 10 10 10 10 10 11 11 11 11 10
16 16 15 15 14 15 14 14 15 15 14 14 14 14 13 13 13 13 12 12 11 11 12 11 11 11 11 10 9 10 10 10 10 10 10 10 10 10 11 11 12 11 12
17 17 16 16 16 15 15 15 15 15 14 14 15 14 13 13 13 13 12 13 12 12 11 11 11 11 11 11 10 10 10 10 10 10 10 10 10 11 12 12 12 12 12
16 16 16 17 16 15 15 15 15 15 14 14 14 14 13 13 13 12 12 12 12 12 12 12 11 11 11 11 10 11 11 11 11 11 11 10 11 12 12 12 12 13 13
16 16 16 16 16 16 15 15 15 14 14 14 14 14 14 14 13 13 12 11 11 12 12 13 12 12 12 11 10 10 10 11 11 11 11 11 11 11 12 12 12 13 13
15 16 17 16 16 16 15 15 15 15 14 14 14 14 14 14 13 13 12 12 12 12 12 11 11 11 11 10 10 10 10 11 11 10 10 10 11 12 12 12 12 13 13
16 16 16 16 16 16 15 15 15 15 14 14 14 14 14 14 13 13 13 13 12 12 12 11 10 9 9 9 9 10 10 10 10 10 10 11 11 12 12 12 12 13 13
15 16 16 16 16 15 15 15 15 16 15 15 15 14 14 14 13 14 13 13 13 13 12 12 11 11 11 11 11 10 10 9 10 10 10 11 11 11 12 12 12 12 13
15 15 16 16 16 15 15 16 16 16 16 15 15 14 14 14 13 14 14 14 14 13 12 13 12 12 12 12 11 11 10 10 10 11 11 11 11 12 13 13 13 13 13
16 16 15 16 16 16 16 15 16 16 16 16 15 15 15 15 14 14 14 13 13 13 13 13 13 13 12 11 11 12 12 12 12 12 12 12 12 13 14 14 14 14 14
15 16 16 16 16 16 16 16 16 16 16 16 16 15 15 15 15 15 14 14 14 13 13 13 14 14 13 12 12 12 12 13 13 13 13 13 13 14 14 15 14 15 15
14 15 15 16 16 16 16 16 16 17 16 16 16 16 16 16 16 15 15 15 14 14 14 14 14 15 15 14 14 13 13 13 13 13 14 14 14 15 15 15 16 16 17
14 14 15 15 16 16 16 17 17 17 17 16 16 16 17 17 16 16 16 15 15 15 15 15 15 15 15 15 14 14 14 14 14 14 15 16 16 16 16 17 17 19 19
15 15 14 14 15 15 15 15 16 17 17 17 16 16 17 17 17 16 16 16 16 16 17 15 15 15 15 15 14 15 15 15 15 16 16 17 17 17 18 19 19 20 20
16 15 14 14 14 15 15 15 16 16 17 17 16 17 17 17 17 17 17 17 17 18 17 16 15 15 15 15 15 16 16 16 16 17 17 17 17 18 19 19 20 21 21
16 15 15 14 15 15 16 16 16 16 16 16 17 17 18 18 18 18 18 18 18 18 17 17 17 16 16 16 16 16 16 17 18 18 18 18 19 19 19 20 21 22 23
15 15 15 15 15 15 15 16 17 17 17 17 17 17 17 18 18 18 17 17 18 18 18 17 17 17 17 17 17 17 17 18 19 20 20 20 20 20 21 22 22 23 24
14 14 15 15 15 15 15 15 16 17 17 17 17 17 17 17 18 18 17 17 17 17 18 18 18 18 18 18 18 19 19 20 21 21 21 21 21 22 22 23 24 25 25
14 14 14 14 15 15 15 15 15 16 17 17 17 17 17 17 17 18 17 17 17 17 18 18 19 19 19 19 20 20 20 21 21 21 21 21 22 23 23 24 25 25 25
15 14 13 13 14 15 15 15 16 16 16 17 17 17 17 17 18 18 18 18 18 17 18 18 19 19 19 20 21 21 21 22 22 22 23 23 24 24 24 25 26 26 27
15 15 15 14 13 14 15 15 15 16 16 17 17 17 18 18 19 19 19 19 19 19 19 19 19 19 19 20 21 21 22 22 23 23 23 24 24 25 26 26 27 28 28
Wind_Direction
255 256 255 254 254 250 247 248 251 252 250 252 250 250 251 252 255 259 263 265 268 273 276 279 286 290 291 291 294 294 297 302 305 309 312 316 315 314 312 311 308 305 302
253 254 255 255 255 255 252 249 250 251 250 249 248 249 251 256 257 259 259 259 263 269 274 280 283 283 287 292 293 292 296 301 305 308 313 317 316 314 311 312 311 308 305
257 258 258 257 256 257 256 253 250 248 249 249 250 252 253 254 256 257 259 258 260 266 271 278 278 278 285 289 289 291 294 299 304 307 310 315 316 316 316 314 314 313 309
256 256 256 256 256 258 261 261 257 251 253 250 252 253 253 255 255 255 256 258 262 265 269 271 271 275 280 284 288 289 293 299 304 307 309 313 317 318 317 317 316 316 315
257 258 253 255 255 258 261 260 258 256 253 253 253 253 253 253 255 255 258 262 263 263 266 267 267 270 274 279 283 287 289 295 299 303 306 310 315 319 320 322 320 318 316
257 258 256 255 256 258 258 255 257 258 256 256 253 253 253 253 254 256 261 264 263 262 263 263 267 267 270 276 280 284 288 292 297 300 304 308 313 317 319 322 322 319 317
257 256 255 254 255 256 254 253 255 257 256 256 255 252 255 256 256 259 260 262 261 260 263 263 265 267 268 272 276 283 287 293 300 300 303 309 314 315 319 322 323 321 321
259 257 256 255 255 255 252 252 254 255 253 255 257 254 256 256 256 255 259 261 261 260 261 261 262 265 267 269 270 280 284 289 297 300 301 305 308 311 314 317 319 320 320
260 258 255 254 253 252 251 250 250 253 255 254 253 252 257 259 257 255 257 259 261 260 264 264 266 268 268 265 269 274 280 285 293 295 296 300 304 308 311 312 314 316 317
260 258 257 254 253 249 249 247 249 254 256 255 255 252 254 256 257 258 258 259 263 261 265 269 265 266 264 264 270 276 282 286 290 293 294 297 304 307 311 312 313 314 315
263 260 256 253 250 248 248 247 249 251 252 255 252 251 249 253 259 256 254 257 260 261 265 267 263 263 261 265 270 276 283 286 290 293 297 301 305 307 310 308 311 313 316
262 259 256 251 249 248 249 250 249 250 252 253 252 251 250 253 255 253 252 256 261 263 265 263 262 263 264 267 271 279 284 289 291 293 296 301 306 309 310 308 308 312 315
260 256 256 252 248 248 249 250 248 250 252 252 252 252 252 251 248 249 252 256 258 260 259 257 258 263 265 265 270 276 280 286 292 295 295 298 304 307 309 309 309 312 313
256 254 253 250 251 251 253 251 249 249 251 251 250 250 251 252 248 247 251 255 257 257 254 256 257 260 263 268 270 273 277 283 289 293 296 296 298 303 306 306 306 308 310
256 257 253 251 250 251 252 250 248 248 250 249 249 249 251 253 254 253 254 255 256 258 258 258 258 258 260 265 270 271 273 278 283 288 294 295 299 301 303 304 303 305 308
258 258 257 253 251 251 251 250 248 249 249 248 249 249 251 254 256 253 252 254 257 258 257 259 261 258 259 264 271 275 274 276 280 287 292 292 296 300 303 304 304 306 306
258 260 258 254 254 254 252 251 249 248 247 248 249 251 252 253 254 252 251 254 257 259 257 258 259 259 262 265 270 272 275 279 281 285 290 290 291 297 299 302 303 302 304
258 258 256 254 254 254 253 250 246 245 247 248 250 252 251 250 250 250 253 255 256 256 257 259 258 259 263 265 268 270 274 280 284 287 290 289 290 294 296 299 302 301 302
258 258 260 259 257 254 254 251 246 247 249 250 253 252 250 248 247 249 253 256 256 258 258 258 257 257 261 265 268 271 274 278 283 286 290 289 290 292 294 297 302 303 301
256 258 260 259 257 253 251 251 249 251 253 255 255 254 253 249 246 248 252 254 256 259 256 256 258 258 261 265 269 271 274 276 281 285 289 289 290 292 294 298 301 303 302
253 255 258 258 257 256 253 252 252 253 255 257 258 257 254 250 249 251 254 255 257 258 256 255 257 258 260 264 269 273 275 276 279 283 286 287 290 294 296 300 302 304 303
251 255 257 258 260 261 257 255 254 255 257 259 259 258 254 252 252 255 257 258 259 257 256 255 255 257 261 264 268 272 276 279 280 282 285 287 290 294 297 300 302 304 303
253 256 258 259 260 261 258 258 258 256 256 256 257 255 255 254 254 255 257 261 260 259 259 257 257 259 263 265 267 271 275 277 281 285 287 288 291 294 295 299 301 303 304
255 257 259 261 259 258 256 256 257 255 253 256 258 258 258 256 255 254 258 261 263 263 262 262 261 262 265 266 269 272 277 279 282 285 288 289 292 294 295 297 300 302 304
257 258 259 264 263 259 259 257 256 256 257 258 259 260 258 256 258 257 259 261 263 265 264 264 264 263 265 267 270 274 278 281 281 284 289 290 291 293 294 297 298 300 302
256 258 259 261 264 264 260 257 257 258 259 259 260 261 261 259 259 261 261 262 263 265 266 266 266 266 267 268 271 273 278 281 283 286 290 291 292 293 295 297 298 300 302
Height
5858 5860 5861 5862 5863 5864 5866 5867 5869 5870 5871 5872 5873 5874 5875 5876 5877 5877 5878 5878 5879 5879 5879 5879 5879 5879 5879 5878 5878 5877 5877 5876 5875 5874 5873 5872 5871 5869 5868 5867 5866 5865 5864
5855 5857 5858 5859 5860 5862 5863 5864 5866 5867 5868 5870 5871 5872 5873 5874 5874 5875 5875 5876 5876 5877 5877 5877 5877 5877 5877 5877 5876 5876 5875 5874 5874 5873 5872 5871 5870 5868 5866 5865 5864 5863 5862
5852 5854 5855 5856 5857 5858 5860 5861 5863 5864 5866 5867 5868 5869 5870 5871 5872 5873 5873 5874 5874 5874 5875 5875 5875 5876 5875 5875 5875 5874 5873 5873 5872 5871 5870 5869 5868 5867 5865 5864 5862 5861 5860
5849 5851 5852 5853 5854 5856 5857 5858 5860 5861 5862 5864 5865 5866 5867 5868 5869 5870 5870 5871 5871 5872 5872 5873 5873 5873 5873 5873 5873 5872 5872 5871 5870 5869 5868 5867 5866 5865 5864 5863 5861 5860 5859
5846 5848 5849 5851 5852 5853 5854 5855 5857 5858 5859 5861 5862 5863 5864 5865 5866 5867 5868 5868 5869 5869 5870 5870 5870 5871 5871 5870 5870 5870 5869 5869 5868 5867 5866 5865 5864 5863 5862 5861 5860 5858 5857
5843 5845 5846 5847 5849 5850 5851 5852 5854 5855 5856 5858 5859 5860 5861 5862 5863 5864 5865 5866 5866 5866 5867 5867 5868 5868 5868 5868 5868 5868 5867 5867 5866 5865 5864 5864 5863 5862 5861 5859 5858 5857 5855
5840 5842 5843 5844 5846 5847 5848 5849 5851 5852 5853 5854 5856 5857 5857 5858 5860 5861 5862 5862 5863 5863 5864 5864 5865 5865 5865 5865 5866 5865 5865 5864 5864 5863 5863 5862 5861 5860 5859 5858 5856 5855 5854
5837 5838 5840 5841 5842 5844 5845 5846 5847 5849 5850 5851 5852 5853 5854 5855 5856 5858 5858 5859 5860 5860 5861 5861 5862 5862 5862 5863 5863 5863 5862 5862 5862 5861 5860 5860 5859 5858 5857 5856 5854 5853 5852
5834 5835 5836 5837 5839 5840 5841 5843 5844 5845 5846 5848 5849 5850 5851 5852 5853 5854 5855 5856 5856 5857 5858 5858 5858 5859 5859 5860 5860 5860 5860 5860 5859 5859 5858 5857 5856 5856 5855 5853 5852 5851 5850
5830 5831 5832 5834 5835 5837 5838 5839 5840 5842 5843 5844 5845 5846 5848 5849 5850 5850 5851 5852 5853 5854 5854 5855 5855 5856 5856 5857 5857 5858 5857 5857 5857 5856 5856 5855 5854 5853 5852 5851 5850 5848 5847
5827 5828 5829 5830 5831 5833 5834 5836 5837 5838 5840 5840 5842 5843 5844 5845 5846 5847 5848 5849 5850 5851 5851 5852 5852 5853 5853 5854 5855 5855 5855 5854 5854 5854 5853 5852 5852 5851 5850 5849 5847 5846 5844
5823 5824 5825 5826 5827 5829 5830 5832 5833 5835 5836 5837 5838 5840 5841 5842 5843 5844 5845 5846 5847 5848 5848 5849 5849 5850 5851 5851 5852 5852 5852 5852 5851 5851 5850 5850 5849 5848 5847 5846 5845 5843 5841
5819 5820 5821 5821 5823 5825 5826 5828 5829 5831 5832 5834 5835 5836 5837 5838 5839 5840 5841 5842 5843 5844 5845 5846 5847 5847 5848 5848 5849 5849 5849 5849 5849 5848 5847 5847 5846 5845 5844 5843 5842 5840 5839
5815 5816 5817 5818 5819 5821 5822 5824 5825 5827 5828 5830 5831 5832 5833 5834 5835 5837 5837 5839 5839 5840 5841 5842 5843 5844 5845 5845 5846 5846 5846 5846 5846 5845 5844 5844 5843 5842 5841 5840 5839 5837 5836
5811 5812 5813 5814 5815 5817 5818 5819 5821 5823 5824 5826 5827 5828 5829 5830 5831 5833 5834 5835 5836 5837 5838 5839 5840 5841 5842 5842 5843 5843 5843 5843 5843 5842 5841 5841 5840 5839 5838 5836 5835 5834 5833
5808 5809 5810 5811 5812 5813 5814 5815 5817 5818 5820 5821 5823 5824 5825 5826 5827 5829 5830 5831 5832 5833 5834 5835 5836 5837 5838 5839 5839 5839 5839 5840 5839 5839 5838 5837 5837 5835 5834 5833 5831 5830 5829
5805 5805 5806 5807 5808 5809 5810 5811 5813 5814 5816 5817 5819 5820 5821 5822 5823 5824 5826 5827 5828 5829 5830 5831 5832 5833 5834 5835 5835 5836 5836 5836 5836 5835 5835 5834 5833 5832 5831 5829 5828 5826 5825
5801 5802 5802 5803 5804 5805 5806 5807 5809 5810 5812 5813 5814 5816 5817 5818 5819 5820 5822 5823 5824 5825 5826 5827 5828 5829 5830 5831 5831 5832 5832 5832 5831 5831 5831 5830 5829 5828 5827 5826 5824 5822 5820
5797 5798 5799 5799 5800 5801 5802 5803 5805 5806 5807 5809 5810 5811 5812 5813 5815 5816 5818 5819 5820 5821 5822 5823 5824 5825 5825 5826 5827 5827 5827 5827 5827 5827 5826 5826 5825 5824 5822 5821 5820 5817 5815
5794 5794 5795 5796 5796 5798 5799 5800 5801 5802 5803 5805 5806 5807 5808 5809 5810 5812 5813 5814 5815 5816 5817 5818 5819 5820 5821 5822 5823 5823 5823 5823 5823 5822 5822 5821 5820 5819 5817 5816 5814 5812 5810
5790 5791 5792 5792 5793 5794 5795 5796 5797 5798 5799 5800 5801 5802 5803 5804 5806 5807 5808 5810 5811 5811 5812 5813 5814 5815 5817 5817 5818 5818 5818 5818 5818 5818 5817 5816 5815 5814 5812 5810 5808 5806 5804
5786 5787 5788 5789 5789 5790 5790 5791 5793 5794 5795 5796 5796 5797 5798 5800 5801 5803 5804 5805 5806 5807 5808 5809 5810 5810 5812 5812 5813 5813 5813 5813 5813 5812 5812 5811 5809 5808 5806 5805 5802 5800 5798
5783 5784 5784 5785 5785 5786 5786 5787 5788 5789 5790 5791 5792 5793 5794 5795 5797 5798 5799 5800 5801 5802 5803 5804 5805 5806 5807 5807 5808 5808 5808 5808 5807 5806 5806 5805 5804 5802 5801 5799 5796 5794 5792
5779 5780 5780 5781 5781 5782 5782 5783 5784 5785 5786 5787 5788 5789 5790 5791 5792 5794 5795 5796 5796 5797 5798 5799 5799 5800 5801 5802 5802 5803 5802 5802 5801 5801 5800 5799 5798 5796 5795 5792 5790 5788 5785
5776 5776 5777 5777 5777 5778 5778 5779 5779 5780 5781 5782 5783 5784 5785 5786 5788 5789 5790 5791 5792 5792 5793 5794 5795 5795 5796 5797 5797 5797 5797 5796 5796 5795 5794 5793 5792 5790 5788 5786 5784 5781 5778
5771 5772 5773 5773 5773 5774 5774 5775 5775 5776 5777 5778 5779 5780 5781 5782 5783 5784 5785 5786 5787 5788 5788 5789 5789 5790 5790 5790 5791 5791 5791 5790 5789 5789 5788 5786 5785 5783 5781 5779 5777 5774 5771